TimeCDT,TemperatureF,Dew PointF,Humidity,Sea Level PressureIn,VisibilityMPH,Wind Direction,Wind SpeedMPH,Gust SpeedMPH,PrecipitationIn,Events,Conditions,WindDirDegrees,DateUTC
12:53 AM,52.0,39.9,63,29.96,10.0,South,13.8,-,N/A,,Clear,180,2012-10-09 05:53:00
1:53 AM,51.1,41.0,68,29.96,10.0,South,12.7,-,N/A,,Clear,180,2012-10-09 06:53:00
2:53 AM,50.0,41.0,71,29.95,10.0,South,12.7,-,N/A,,Clear,180,2012-10-09 07:53:00
3:53 AM,50.0,42.1,74,29.91,10.0,South,13.8,-,N/A,,Clear,180,2012-10-09 08:53:00
4:53 AM,50.0,43.0,77,29.89,10.0,South,16.1,-,N/A,,Clear,190,2012-10-09 09:53:00
5:53 AM,48.9,43.0,80,29.88,10.0,South,16.1,-,N/A,,Clear,180,2012-10-09 10:53:00
6:53 AM,48.0,44.1,86,29.88,10.0,South,13.8,-,N/A,,Clear,190,2012-10-09 11:53:00
7:53 AM,48.0,45.0,89,29.89,8.0,South,15.0,-,N/A,,Clear,180,2012-10-09 12:53:00
8:53 AM,52.0,48.0,86,29.89,8.0,South,16.1,-,N/A,,Clear,180,2012-10-09 13:53:00
9:53 AM,57.0,50.0,77,29.88,10.0,South,23.0,-,N/A,,Clear,190,2012-10-09 14:53:00
10:53 AM,63.0,51.1,65,29.87,10.0,SSW,18.4,26.5,N/A,,Clear,210,2012-10-09 15:53:00
11:53 AM,66.9,52.0,59,29.86,10.0,SSW,17.3,-,N/A,,Clear,210,2012-10-09 16:53:00
12:53 PM,71.1,52.0,51,29.84,10.0,SW,13.8,21.9,N/A,,Clear,230,2012-10-09 17:53:00
1:53 PM,73.9,51.1,45,29.83,10.0,SW,10.4,-,N/A,,Clear,220,2012-10-09 18:53:00
2:53 PM,75.9,48.9,38,29.82,10.0,Variable,3.5,-,N/A,,Clear,0,2012-10-09 19:53:00
3:53 PM,79.0,44.1,29,29.83,10.0,North,6.9,-,N/A,,Clear,350,2012-10-09 20:53:00
4:53 PM,80.1,45.0,29,29.84,10.0,North,6.9,-,N/A,,Clear,360,2012-10-09 21:53:00
5:53 PM,79.0,43.0,28,29.87,10.0,NNE,9.2,-,N/A,,Clear,20,2012-10-09 22:53:00
6:53 PM,73.0,45.0,37,29.91,10.0,NNE,6.9,-,N/A,,Clear,30,2012-10-09 23:53:00
7:53 PM,64.9,43.0,45,29.95,10.0,NNE,10.4,-,N/A,,Clear,20,2012-10-10 00:53:00
8:53 PM,64.0,44.1,48,29.98,10.0,NE,15.0,-,N/A,,Clear,40,2012-10-10 01:53:00
9:53 PM,62.1,45.0,53,29.99,10.0,NE,17.3,-,N/A,,Clear,50,2012-10-10 02:53:00
10:53 PM,60.1,46.0,60,30.02,10.0,NE,16.1,-,N/A,,Clear,40,2012-10-10 03:53:00
11:53 PM,57.9,43.0,58,30.05,10.0,NE,16.1,28.8,N/A,,Clear,40,2012-10-10 04:53:00